When you browse on this site, cookies collect data to enhance your experience and personalize the content and advertising you see.
Visit our Privacy Policy to learn more. By continuing to use the site, you agree to this use of cookies and data.

Stündliche Wetter Jubail

Heute, 24 September, Donnerstag

Zeit Temperatur Niederschläge Wind Luftdruck Luftfeuchtigkeit
00:00 +31°C° 0 mm 1 m/S 752 mmHg 33%
01:00 +30°C° 0 mm 1 m/S 752 mmHg 36%
02:00 +30°C° 0 mm 1 m/S 752 mmHg 38%
03:00 +29°C° 0 mm 2 m/S 752 mmHg 36%
04:00 +30°C° 0 mm 3 m/S 752 mmHg 36%
05:00 +31°C° 0 mm 3 m/S 753 mmHg 35%
06:00 +32°C° 0 mm 4 m/S 753 mmHg 34%
07:00 +35°C° 0 mm 3 m/S 754 mmHg 30%
08:00 +37°C° 0 mm 2 m/S 754 mmHg 26%
09:00 +40°C° 0 mm 1 m/S 754 mmHg 23%
10:00 +41°C° 0 mm 2 m/S 754 mmHg 21%
11:00 +43°C° 0 mm 2 m/S 754 mmHg 18%
12:00 +45°C° 0 mm 3 m/S 754 mmHg 16%
13:00 +45°C° 0 mm 3 m/S 753 mmHg 17%
14:00 +44°C° 0 mm 4 m/S 753 mmHg 18%
15:00 +45°C° 0 mm 5 m/S 752 mmHg 19%
16:00 +41°C° 0 mm 4 m/S 753 mmHg 30%
17:00 +37°C° 0 mm 4 m/S 753 mmHg 40%
18:00 +35°C° 0 mm 3 m/S 753 mmHg 51%
19:00 +32°C° 0 mm 2 m/S 753 mmHg 53%
20:00 +31°C° 0 mm 1 m/S 754 mmHg 55%
21:00 +28°C° 0 mm 0 m/S 754 mmHg 57%
22:00 +30°C° 0 mm 1 m/S 754 mmHg 53%
23:00 +30°C° 0 mm 1 m/S 753 mmHg 48%

Morgen, 25 September, Freitag

Zeit Temperatur Niederschläge Wind Luftdruck Luftfeuchtigkeit
00:00 +30°C° 0 mm 2 m/S 753 mmHg 43%
01:00 +30°C° 0 mm 2 m/S 753 mmHg 40%
02:00 +30°C° 0 mm 3 m/S 753 mmHg 36%
03:00 +30°C° 0 mm 3 m/S 753 mmHg 33%
04:00 +30°C° 0 mm 3 m/S 753 mmHg 34%
05:00 +30°C° 0 mm 3 m/S 754 mmHg 35%
06:00 +30°C° 0 mm 2 m/S 754 mmHg 35%
07:00 +35°C° 0 mm 3 m/S 754 mmHg 30%
08:00 +38°C° 0 mm 3 m/S 754 mmHg 24%
09:00 +42°C° 0 mm 3 m/S 755 mmHg 19%
10:00 +43°C° 0 mm 3 m/S 754 mmHg 17%
11:00 +44°C° 0 mm 3 m/S 754 mmHg 15%
12:00 +45°C° 0 mm 4 m/S 754 mmHg 13%
13:00 +45°C° 0 mm 4 m/S 753 mmHg 14%
14:00 +44°C° 0 mm 4 m/S 753 mmHg 16%
15:00 +45°C° 0 mm 5 m/S 753 mmHg 17%
16:00 +40°C° 0 mm 3 m/S 753 mmHg 23%
17:00 +37°C° 0 mm 2 m/S 753 mmHg 28%
18:00 +33°C° 0 mm 1 m/S 753 mmHg 33%
19:00 +33°C° 0 mm 1 m/S 753 mmHg 31%
20:00 +34°C° 0 mm 2 m/S 753 mmHg 28%
21:00 +34°C° 0 mm 2 m/S 753 mmHg 25%
22:00 +34°C° 0 mm 3 m/S 753 mmHg 24%
23:00 +34°C° 0 mm 3 m/S 753 mmHg 24%

übermorgen, 26 September, Samstag

Zeit Temperatur Niederschläge Wind Luftdruck Luftfeuchtigkeit
00:00 +34°C° 0 mm 3 m/S 752 mmHg 23%
01:00 +33°C° 0 mm 4 m/S 752 mmHg 23%
02:00 +33°C° 0 mm 4 m/S 752 mmHg 23%
03:00 +33°C° 0 mm 5 m/S 751 mmHg 23%
04:00 +32°C° 0 mm 5 m/S 752 mmHg 23%
05:00 +32°C° 0 mm 5 m/S 752 mmHg 23%
06:00 +32°C° 0 mm 5 m/S 753 mmHg 23%
07:00 +35°C° 0 mm 4 m/S 753 mmHg 20%
08:00 +38°C° 0 mm 4 m/S 753 mmHg 17%
09:00 +42°C° 0 mm 4 m/S 753 mmHg 14%
10:00 +43°C° 0 mm 5 m/S 753 mmHg 12%
11:00 +46°C° 0 mm 5 m/S 753 mmHg 11%
12:00 +47°C° 0 mm 6 m/S 753 mmHg 9%
13:00 +46°C° 0 mm 6 m/S 752 mmHg 12%
14:00 +46°C° 0 mm 7 m/S 752 mmHg 15%
15:00 +45°C° 0 mm 7 m/S 751 mmHg 18%
16:00 +41°C° 0 mm 6 m/S 752 mmHg 28%
17:00 +37°C° 0 mm 5 m/S 752 mmHg 38%
18:00 +34°C° 0 mm 4 m/S 752 mmHg 48%
19:00 +34°C° 0 mm 3 m/S 752 mmHg 51%
20:00 +33°C° 0 mm 3 m/S 752 mmHg 55%
21:00 +31°C° 0 mm 3 m/S 753 mmHg 58%
22:00 +31°C° 0 mm 3 m/S 753 mmHg 58%
23:00 +30°C° 0 mm 3 m/S 752 mmHg 57%

27 September, Sonntag

Zeit Temperatur Niederschläge Wind Luftdruck Luftfeuchtigkeit
00:00 +30°C° 0 mm 3 m/S 752 mmHg 57%
01:00 +29°C° 0 mm 3 m/S 752 mmHg 54%
02:00 +29°C° 0 mm 3 m/S 752 mmHg 51%
03:00 +29°C° 0 mm 3 m/S 752 mmHg 48%
04:00 +29°C° 0 mm 3 m/S 752 mmHg 43%
05:00 +29°C° 0 mm 3 m/S 753 mmHg 38%
06:00 +29°C° 0 mm 2 m/S 753 mmHg 32%
07:00 +32°C° 0 mm 2 m/S 753 mmHg 26%
08:00 +36°C° 0 mm 2 m/S 754 mmHg 21%
09:00 +39°C° 0 mm 2 m/S 754 mmHg 15%
10:00 +41°C° 0 mm 2 m/S 754 mmHg 14%
11:00 +43°C° 0 mm 3 m/S 754 mmHg 12%
12:00 +45°C° 0 mm 3 m/S 753 mmHg 11%
13:00 +44°C° 0 mm 3 m/S 753 mmHg 13%
14:00 +44°C° 0 mm 4 m/S 752 mmHg 14%
15:00 +45°C° 0 mm 5 m/S 752 mmHg 16%
16:00 +41°C° 0 mm 5 m/S 752 mmHg 25%
17:00 +37°C° 0 mm 5 m/S 752 mmHg 34%
18:00 +35°C° 0 mm 5 m/S 752 mmHg 44%
19:00 +34°C° 0 mm 5 m/S 752 mmHg 43%
20:00 +34°C° 0 mm 4 m/S 753 mmHg 42%
21:00 +33°C° 0 mm 4 m/S 753 mmHg 41%
22:00 +31°C° 0 mm 3 m/S 753 mmHg 41%
23:00 +30°C° 0 mm 3 m/S 753 mmHg 42%

28 September, Montag

Zeit Temperatur Niederschläge Wind Luftdruck Luftfeuchtigkeit
00:00 +29°C° 0 mm 2 m/S 752 mmHg 42%
01:00 +29°C° 0 mm 2 m/S 753 mmHg 40%
02:00 +28°C° 0 mm 2 m/S 753 mmHg 38%
03:00 +28°C° 0 mm 2 m/S 753 mmHg 36%
04:00 +28°C° 0 mm 2 m/S 753 mmHg 36%
05:00 +28°C° 0 mm 2 m/S 753 mmHg 35%
06:00 +28°C° 0 mm 2 m/S 754 mmHg 35%
07:00 +32°C° 0 mm 2 m/S 754 mmHg 32%
08:00 +36°C° 0 mm 3 m/S 754 mmHg 28%
09:00 +40°C° 0 mm 4 m/S 754 mmHg 25%
10:00 +41°C° 0 mm 5 m/S 754 mmHg 23%
11:00 +44°C° 0 mm 6 m/S 754 mmHg 21%
12:00 +45°C° 0 mm 6 m/S 754 mmHg 19%
13:00 +44°C° 0 mm 6 m/S 753 mmHg 18%
14:00 +43°C° 0 mm 5 m/S 753 mmHg 18%
15:00 +43°C° 0 mm 5 m/S 753 mmHg 17%
16:00 +40°C° 0 mm 4 m/S 753 mmHg 24%
17:00 +37°C° 0 mm 4 m/S 753 mmHg 30%
18:00 +34°C° 0 mm 3 m/S 753 mmHg 37%
19:00 +32°C° 0 mm 2 m/S 753 mmHg 41%
20:00 +31°C° 0 mm 2 m/S 754 mmHg 45%
21:00 +30°C° 0 mm 1 m/S 754 mmHg 49%
22:00 +30°C° 0 mm 2 m/S 754 mmHg 46%
23:00 +30°C° 0 mm 2 m/S 753 mmHg 43%

29 September, Dienstag

Zeit Temperatur Niederschläge Wind Luftdruck Luftfeuchtigkeit
00:00 +30°C° 0 mm 3 m/S 753 mmHg 40%
01:00 +30°C° 0 mm 3 m/S 753 mmHg 36%
02:00 +30°C° 0 mm 4 m/S 753 mmHg 32%
03:00 +30°C° 0 mm 4 m/S 752 mmHg 28%
04:00 +30°C° 0 mm 4 m/S 753 mmHg 27%
05:00 +30°C° 0 mm 3 m/S 753 mmHg 26%
06:00 +29°C° 0 mm 3 m/S 753 mmHg 24%
07:00 +33°C° 0 mm 3 m/S 754 mmHg 20%
08:00 +36°C° 0 mm 3 m/S 754 mmHg 16%
09:00 +39°C° 0 mm 3 m/S 754 mmHg 12%
10:00 +40°C° 0 mm 2 m/S 754 mmHg 12%
11:00 +41°C° 0 mm 2 m/S 753 mmHg 11%
12:00 +43°C° 0 mm 2 m/S 753 mmHg 10%
13:00 +44°C° 0 mm 3 m/S 752 mmHg 11%
14:00 +43°C° 0 mm 4 m/S 752 mmHg 12%
15:00 +43°C° 0 mm 5 m/S 751 mmHg 13%
16:00 +41°C° 0 mm 5 m/S 751 mmHg 22%
17:00 +37°C° 0 mm 5 m/S 752 mmHg 30%
18:00 +35°C° 0 mm 6 m/S 752 mmHg 38%
19:00 +34°C° 0 mm 6 m/S 752 mmHg 43%
20:00 +33°C° 0 mm 6 m/S 752 mmHg 48%
21:00 +33°C° 0 mm 6 m/S 752 mmHg 53%
22:00 +32°C° 0 mm 6 m/S 752 mmHg 54%
23:00 +32°C° 0 mm 5 m/S 752 mmHg 55%
Mehr zeigen